Voltar ao catálogo

SL-8 R/B

AtivoLEO
NORAD 16864·ROCKET BODY·🇷🇺 Russia

Lançado Jul 16, 1986 de Plesetsk Cosmodrome

Loading…

Próximas Passagens (próximas 24 horas)

TLE

AtualizadoSource: Space-Track

Época: Sep 14, 2026, 14:26 UTC

1 16864U 86052B   26257.60171350  .00000168  00000-0  58662-4 0  9997
2 16864  74.0298 322.0407 0033001 311.5332  48.2994 14.42362612109018

Acompanhe SL-8 R/B em tempo real com AllMySat

Download on the App Store